{"data":{"norad_id":63848,"epoch":"2026-05-25T00:04:42.166848Z","epoch_age_seconds":72257,"freshness":"FRESH","line1":"1 63848U 25093N   26145.00326582  .00008202  00000+0  30716-3 0  9993","line2":"2 63848  43.0031   6.8959 0001327 271.6538  88.4161 15.27588755 59425","mean_motion":15.27588755,"eccentricity":0.0001327,"inclination_deg":43.0031,"raan_deg":6.8959,"arg_perigee_deg":271.6538,"mean_anomaly_deg":88.4161,"bstar":0.00030716,"rev_number":5942,"period_min":94.266208446919,"perigee_km":482.11240462912,"apogee_km":483.93335646141,"semimajor_km":6861.1598805453,"source":"CELESTRAK","updated_at":"2026-05-25T13:38:20.148622Z"}}